[[{"header":{"parameterUnit":"m.s-1","parameterCategory":2,"la1":30.2991,"la2":30.254,"lo1":-89.0895,"lo2":-89.0444,"dy":0.0017,"dx":0.0017,"nx":28,"ny":28,"refTime":"2025-04-02T03:00:00:Z","depth":"0","parameterNumber":2,"parameterNumberName":"U-component_of_CURRENTS"},"data":[0,0,0,0,0,0,0,0,0,0,0,0,0,0,0,0,0,0,0,0,0,0,0,0,0,0,0,0,0,0,0,0,0,0,0,0,0,0,0,0,0,0,0,0,0,0,0,0,0,0,0,0,0,0,0,0,0,0,-0.2311,-0.2312,0,-0.233,-0.233,-0.233,-0.232,-0.2319,-0.2319,-0.2319,-0.2267,-0.2265,-0.2264,0,0,0,0,0,0,0,0,0,0,0,0,0,-0.2226,-0.2228,-0.2311,-0.2312,-0.2313,-0.233,-0.233,-0.233,-0.232,-0.2319,-0.2319,-0.2319,-0.2267,-0.2266,-0.2264,0,0,0,0,0,0,0,0,0,0,0,0,0,-0.2253,-0.2228,-0.2311,-0.2312,-0.2313,-0.233,-0.233,-0.233,-0.232,-0.2319,-0.2319,-0.2319,-0.2268,-0.2266,-0.2264,-0.2258,0,0,-0.2258,-0.2258,0,0,0,0,0,0,0,0,-0.2251,-0.2255,-0.2311,-0.2312,-0.2313,-0.2325,-0.2281,-0.2304,-0.232,-0.2313,-0.2319,-0.2319,-0.2282,-0.2279,-0.2279,-0.2256,-0.2254,-0.2258,-0.2257,-0.2256,-0.2256,0,0,0,0,0,0,0,-0.2249,-0.2254,-0.2315,-0.2312,-0.2313,-0.2298,-0.2301,-0.2285,-0.2295,-0.2314,-0.2314,-0.2322,-0.2281,-0.2281,-0.2278,-0.2253,-0.2258,-0.2257,-0.2256,-0.2255,-0.2241,-0.2241,0,0,0,0,0,0,-0.2257,-0.2253,-0.2315,-0.2316,-0.2285,-0.23,-0.2304,-0.2319,-0.2297,-0.2295,-0.2322,-0.2321,-0.2284,-0.228,-0.2276,-0.2307,-0.2256,-0.2255,-0.2254,-0.224,-0.2241,-0.2242,0,0,0,0,0,0,-0.2255,-0.2263,-0.2314,-0.2287,-0.2293,-0.2302,-0.2319,-0.2319,-0.2322,-0.2304,-0.23,-0.2326,-0.2284,-0.2278,-0.2271,-0.2303,-0.2254,-0.2252,-0.2239,-0.224,-0.2241,-0.2343,0,0,0,0,0,0,-0.2253,-0.2262,-0.2269,-0.2288,-0.2295,-0.2335,-0.232,-0.232,-0.2329,-0.2328,-0.2306,-0.2301,-0.2283,-0.2274,-0.2269,-0.23,-0.2251,-0.2238,-0.224,-0.2241,-0.2339,-0.2348,-0.2355,0,0,0,0,0,-0.225,-0.2264,-0.2269,-0.2277,-0.2307,-0.2336,-0.2338,-0.2341,-0.233,-0.234,-0.2323,-0.2302,-0.2279,-0.2273,-0.2267,-0.2298,-0.2238,-0.2239,-0.2241,-0.2335,-0.2346,-0.2355,0,0,0,0,0,0,-0.2225,-0.2265,-0.2271,-0.2295,-0.232,-0.2336,-0.2341,-0.2345,-0.234,-0.2332,-0.2309,-0.2304,-0.2311,-0.2283,-0.2277,-0.2296,-0.2255,-0.2256,-0.2329,-0.2339,-0.2347,-0.2363,-0.2249,0,0,0,0,0,-0.2226,-0.2246,-0.2283,-0.2299,-0.2313,-0.2327,-0.2336,-0.2343,-0.2346,-0.2344,-0.2332,-0.2315,-0.2313,-0.2309,-0.2295,-0.2303,-0.229,-0.2317,-0.2325,-0.2332,-0.234,-0.2359,-0.237,-0.2247,-0.2247,-0.2247,0,0,-0.2217,-0.2243,-0.2252,-0.2294,-0.2308,-0.2348,-0.233,-0.2351,-0.2386,-0.2337,-0.2362,-0.234,-0.2319,-0.2335,-0.2335,-0.2317,-0.236,-0.2334,-0.2341,-0.2345,-0.2362,-0.2374,-0.2385,-0.2248,-0.2248,-0.2248,0,0,-0.2221,-0.2238,-0.2263,-0.2296,-0.2332,-0.2351,-0.2362,-0.2388,-0.2398,-0.2418,-0.2399,-0.24,-0.2384,-0.2392,-0.239,-0.2431,-0.2401,-0.2418,-0.2477,-0.2496,-0.2507,-0.2517,-0.2518,-0.2526,-0.2425,-0.2425,-0.2425,0,-0.2208,-0.2256,-0.2272,-0.2317,-0.2351,-0.236,-0.2407,-0.2426,-0.2446,-0.2462,-0.2435,-0.2443,-0.242,-0.2464,-0.2474,-0.2454,-0.2446,-0.2448,-0.251,-0.2519,-0.2527,-0.2525,-0.2534,-0.243,-0.243,-0.2429,-0.2429,0,-0.2244,-0.2289,-0.2307,-0.2374,-0.2409,-0.2447,-0.2492,-0.2517,-0.2522,-0.254,-0.2572,-0.2548,-0.2551,-0.255,-0.2521,-0.2573,-0.2543,-0.252,-0.2492,-0.2546,-0.254,-0.2547,-0.2438,-0.2436,-0.2434,-0.2433,0,0,-0.2199,-0.2312,-0.2317,-0.2371,-0.2448,-0.2481,-0.2545,-0.2608,-0.2647,-0.2658,-0.2706,-0.2706,-0.2682,-0.2676,-0.2651,-0.2668,-0.271,-0.2617,-0.2615,-0.263,-0.274,-0.2687,-0.2689,-0.2699,-0.27,-0.2702,-0.2715,0,-0.2223,-0.2322,-0.2372,-0.2466,-0.2526,-0.2575,-0.2637,-0.2691,-0.2716,-0.2759,-0.2761,-0.2779,-0.2736,-0.2729,-0.2746,-0.2711,-0.2732,-0.2708,-0.2674,-0.2673,-0.2631,-0.2697,-0.2612,-0.2614,-0.2721,-0.2722,-0.2723,0,-0.2239,-0.2314,-0.2411,-0.2538,-0.2565,-0.2617,-0.2713,-0.2769,-0.2836,-0.2853,-0.2881,-0.2868,-0.2893,-0.2839,-0.2844,-0.2827,-0.2793,-0.2771,-0.2771,-0.2691,-0.2633,-0.2575,-0.2621,-0.2616,-0.2733,-0.2732,-0.2731,0,-0.2205,-0.2336,-0.2416,-0.2461,-0.26,-0.2645,-0.2705,-0.2786,-0.2831,-0.29,-0.2921,-0.2957,-0.295,-0.2942,-0.2878,-0.2863,-0.2873,-0.2846,-0.2779,-0.2774,-0.268,-0.2663,-0.2726,-0.2867,-0.2867,-0.2867,-0.2867,0,-0.2218,-0.228,-0.2405,-0.2455,-0.2539,-0.2636,-0.271,-0.2776,-0.2859,-0.2911,-0.2949,-0.2981,-0.2971,-0.2965,-0.2919,-0.2865,-0.2906,-0.2806,-0.2785,-0.271,-0.2698,-0.2667,-0.2673,-0.2868,-0.2867,-0.2867,-0.2867,0,-0.2169,-0.2256,-0.2351,-0.2491,-0.2527,-0.2578,-0.2693,-0.2747,-0.2833,-0.29,-0.292,-0.2991,-0.2991,-0.2974,-0.2951,-0.29,-0.2826,-0.2836,-0.2739,-0.2707,-0.2635,-0.2649,-0.2664,-0.2586,-0.2779,-0.2778,-0.2777,0,-0.2155,-0.2201,-0.2338,-0.2377,-0.2436,-0.2521,-0.2579,-0.2704,-0.2764,-0.2898,-0.2926,-0.2967,-0.297,-0.2932,-0.2868,-0.2808,-0.2787,-0.2696,-0.266,-0.264,-0.2642,-0.2642,-0.2574,-0.2573,-0.2571,-0.2569,-0.2567,0,-0.2113,-0.2152,-0.2223,-0.2305,-0.237,-0.2447,-0.2541,-0.2588,-0.2736,-0.2795,-0.2873,-0.2889,-0.289,-0.2809,-0.2744,-0.2684,-0.2645,-0.2651,-0.2664,-0.2523,-0.2495,-0.2405,-0.255,-0.2549,-0.2551,-0.2552,-0.2553,-0.2554,-0.2041,-0.2067,-0.2142,-0.2209,-0.2282,-0.2342,-0.2351,-0.2468,-0.2533,-0.2606,-0.2734,-0.2736,-0.2753,-0.2652,-0.2599,-0.2499,-0.2515,-0.2436,-0.2466,-0.2476,-0.2378,-0.2479,-0.2433,-0.2434,-0.2435,-0.2436,-0.2436,0,-0.1938,-0.1978,-0.204,-0.2106,-0.2129,-0.221,-0.2295,-0.2275,-0.2296,-0.2428,-0.247,-0.254,-0.2483,-0.2493,-0.2438,-0.2349,-0.2272,-0.2299,-0.229,-0.2233,-0.235,-0.2316,-0.2202,-0.2202,-0.2202,-0.2202,-0.2202,-0.2202,-0.188,-0.1887,-0.193,-0.1922,-0.1963,-0.1931,-0.1942,-0.1933,-0.1982,-0.2012,-0.2099,-0.2195,-0.2277,-0.2519,-0.243,-0.2317,-0.2249,-0.2194,-0.2194,-0.2302,-0.2318,-0.2332,-0.2303,-0.2189,-0.2189,-0.2001,-0.2,-0.1999]},{"header":{"parameterUnit":"m.s-1","parameterCategory":2,"la1":30.2991,"la2":30.254,"lo1":-89.0895,"lo2":-89.0444,"dy":0.0017,"dx":0.0017,"nx":28,"ny":28,"refTime":"2025-04-02T03:00:00:Z","depth":"0","parameterNumber":3,"parameterNumberName":"V-component_of_CURRENTS"},"data":[0,0,0,0,0,0,0,0,0,0,0,0,0,0,0,0,0,0,0,0,0,0,0,0,0,0,0,0,0,0,0,0,0,0,0,0,0,0,0,0,0,0,0,0,0,0,0,0,0,0,0,0,0,0,0,0,0,0,0.0039,0.0039,0,0.0124,0.0125,0.0126,0.0179,0.0179,0.0179,0.018,0.0298,0.0301,0.0304,0,0,0,0,0,0,0,0,0,0,0,0,0,-0.0027,-0.0027,0.0038,0.004,0.0041,0.0123,0.0125,0.0126,0.0179,0.0179,0.0179,0.018,0.0297,0.03,0.0304,0,0,0,0,0,0,0,0,0,0,0,0,0,0.0024,-0.0027,0.0038,0.0077,0.0081,0.0123,0.0125,0.0126,0.0179,0.0179,0.0179,0.018,0.0296,0.03,0.0304,0.0323,0,0,0.0318,0.0319,0,0,0,0,0,0,0,0,0.0021,0.0026,0.007,0.0074,0.0079,0.0141,0.0145,0.0193,0.0179,0.0142,0.018,0.018,0.0248,0.0256,0.0271,0.0328,0.0333,0.0318,0.0321,0.0322,0.0324,0,0,0,0,0,0,0,0.0017,0.0023,0.0072,0.0071,0.0077,0.0107,0.0115,0.0154,0.0192,0.0145,0.0149,0.0158,0.0251,0.0267,0.0274,0.0335,0.0318,0.0322,0.0324,0.0326,0.0432,0.0432,0,0,0,0,0,0,0.0003,0.0019,0.007,0.0075,0.005,0.0108,0.0116,0.0121,0.0191,0.0202,0.0158,0.016,0.0259,0.0269,0.0279,0.0316,0.0322,0.0326,0.0329,0.0432,0.0432,0.0432,0,0,0,0,0,0,0.0001,0.0007,0.0066,0.0049,0.0059,0.0108,0.0113,0.0122,0.0139,0.02,0.0212,0.0165,0.026,0.0273,0.0314,0.0321,0.0328,0.0332,0.0432,0.0432,0.0432,0.0383,0,0,0,0,0,0,-0.0001,0.0005,0.0001,0.0048,0.0059,0.0083,0.0113,0.0124,0.0144,0.0148,0.0211,0.0222,0.0261,0.0308,0.0319,0.0327,0.0336,0.0431,0.0432,0.0432,0.0385,0.0382,0.038,0,0,0,0,0,-0.0004,-0.0014,0.0,0.0007,0.0053,0.0083,0.0091,0.0128,0.0144,0.0146,0.0192,0.022,0.0318,0.0311,0.0324,0.0334,0.0431,0.0432,0.0432,0.0386,0.0383,0.038,0,0,0,0,0,0,-0.0048,-0.0008,0.0009,0.001,0.0041,0.0092,0.0096,0.0123,0.0161,0.0165,0.0223,0.0238,0.0277,0.0311,0.0301,0.0366,0.038,0.0383,0.034,0.0337,0.0335,0.0316,0.0339,0,0,0,0,0,-0.006,-0.0056,-0.0011,-0.0012,0.0001,0.0048,0.0064,0.0089,0.013,0.0147,0.0192,0.0242,0.0289,0.0316,0.0358,0.0392,0.0435,0.0407,0.0404,0.0402,0.0396,0.0473,0.0477,0.0434,0.0434,0.0434,0,0,-0.0079,-0.0056,-0.0054,-0.0021,0.0006,0.0016,0.0058,0.0077,0.0091,0.0154,0.0184,0.0233,0.0296,0.0335,0.0356,0.0364,0.0436,0.0402,0.04,0.0395,0.0474,0.0478,0.0482,0.0434,0.0434,0.0434,0,0,-0.0116,-0.0093,-0.0102,-0.0079,-0.0044,-0.0012,-0.001,0.0038,0.0066,0.01,0.0154,0.0208,0.0268,0.0324,0.0358,0.0367,0.0418,0.0376,0.0353,0.0428,0.0433,0.0437,0.0492,0.0501,0.0378,0.0377,0.0377,0,-0.0142,-0.0145,-0.0101,-0.0101,-0.0091,-0.003,-0.0038,0.0002,0.0058,0.0084,0.01,0.0213,0.0266,0.0334,0.0336,0.0363,0.0402,0.0358,0.0425,0.043,0.0435,0.0491,0.0502,0.0375,0.0375,0.0376,0.0376,0,-0.018,-0.0184,-0.0188,-0.0168,-0.0148,-0.0147,-0.0089,-0.006,-0.002,0.0025,0.0094,0.0175,0.0243,0.0273,0.0307,0.0371,0.0386,0.0411,0.043,0.0437,0.0495,0.0507,0.0372,0.0373,0.0373,0.0374,0,0,-0.024,-0.0221,-0.0224,-0.0233,-0.0186,-0.018,-0.0145,-0.0099,-0.0076,-0.0003,0.0036,0.0134,0.0185,0.0227,0.0292,0.0358,0.0432,0.0389,0.0394,0.0438,0.0582,0.0629,0.0647,0.0466,0.0468,0.047,0.0606,0,-0.0288,-0.0319,-0.0284,-0.031,-0.0325,-0.0257,-0.0234,-0.0178,-0.0114,-0.0058,0.0051,0.0109,0.0168,0.0201,0.0281,0.0393,0.0463,0.0391,0.0574,0.0579,0.0616,0.0663,0.0734,0.0864,0.0618,0.062,0.0622,0,-0.0337,-0.0354,-0.0393,-0.0391,-0.0389,-0.0384,-0.0336,-0.0305,-0.0197,-0.0145,-0.0051,0.0033,0.0151,0.0192,0.0397,0.0346,0.0454,0.0543,0.0551,0.0619,0.065,0.0821,0.0897,0.1115,0.0642,0.064,0.0639,0,-0.0415,-0.0431,-0.047,-0.0469,-0.0449,-0.0443,-0.0422,-0.0335,-0.0308,-0.0196,-0.0158,-0.0007,0.0072,0.023,0.0421,0.0408,0.0642,0.0654,0.08,0.0803,0.0913,0.0923,0.122,0.0796,0.0796,0.0795,0.0795,0,-0.0486,-0.0517,-0.0512,-0.0536,-0.0577,-0.0524,-0.053,-0.0477,-0.0395,-0.0361,-0.0213,-0.014,0.0084,0.0248,0.0412,0.0653,0.0646,0.0807,0.0852,0.0897,0.0904,0.1137,0.1192,0.0801,0.0799,0.0798,0.0798,0,-0.0567,-0.0561,-0.0612,-0.0614,-0.0618,-0.0646,-0.0623,-0.0619,-0.0522,-0.0467,-0.0436,-0.0233,-0.0005,0.0227,0.0498,0.0645,0.0995,0.0944,0.097,0.1016,0.1339,0.1385,0.1664,0.1777,0.1126,0.1128,0.113,0,-0.0612,-0.0648,-0.0686,-0.0726,-0.073,-0.0756,-0.0772,-0.0698,-0.0681,-0.0515,-0.0495,-0.0261,-0.0069,0.0352,0.0658,0.0974,0.1113,0.1198,0.1195,0.1388,0.1474,0.1496,0.1572,0.1322,0.1325,0.1328,0.133,0,-0.0702,-0.0709,-0.075,-0.0837,-0.0876,-0.0915,-0.092,-0.0924,-0.0816,-0.0726,-0.0557,-0.0381,0.006,0.0475,0.0884,0.1073,0.1359,0.126,0.148,0.1671,0.1698,0.1817,0.1179,0.1353,0.1351,0.1349,0.1348,0.1347,-0.076,-0.0814,-0.0869,-0.095,-0.1006,-0.1055,-0.1077,-0.104,-0.0987,-0.0812,-0.062,-0.0276,0.0331,0.0941,0.1157,0.1657,0.1568,0.1809,0.1854,0.1862,0.1973,0.1368,0.1575,0.1574,0.1573,0.1573,0.1572,0,-0.0834,-0.0892,-0.098,-0.1066,-0.1146,-0.1141,-0.1164,-0.1133,-0.1059,-0.0812,-0.0584,0.0163,0.0762,0.1311,0.1992,0.2251,0.2296,0.2377,0.2458,0.251,0.2023,0.2036,0.233,0.2329,0.2329,0.2329,0.2329,0.2328,-0.0875,-0.0971,-0.1019,-0.1169,-0.1227,-0.1285,-0.1293,-0.1194,-0.1014,-0.0565,-0.0118,0.024,0.1046,0.2137,0.2775,0.2823,0.3035,0.3,0.3097,0.2798,0.2749,0.2703,0.2736,0.3171,0.3172,0.36,0.3604,0.3607]}],[{"header":{"parameterUnit":"m.s-1","parameterCategory":2,"la1":30.2991,"la2":30.254,"lo1":-89.0895,"lo2":-89.0444,"dy":0.0017,"dx":0.0017,"nx":28,"ny":28,"refTime":"2025-04-02T03:00:00:Z","depth":"2","parameterNumber":2,"parameterNumberName":"U-component_of_CURRENTS"},"data":[0,0,0,0,0,0,0,0,0,0,0,0,0,0,0,0,0,0,0,0,0,0,0,0,0,0,0,0,0,0,0,0,0,0,0,0,0,0,0,0,0,0,0,0,0,0,0,0,0,0,0,0,0,0,0,0,0,0,-0.2241,-0.2241,0,-0.2258,-0.2258,-0.2258,-0.2249,-0.2249,-0.2249,-0.2249,-0.2199,-0.2198,-0.2196,0,0,0,0,0,0,0,0,0,0,0,0,0,-0.2158,-0.216,-0.2241,-0.2241,-0.2242,-0.2258,-0.2258,-0.2258,-0.2249,-0.2249,-0.2249,-0.2249,-0.2199,-0.2198,-0.2196,0,0,0,0,0,0,0,0,0,0,0,0,0,-0.2184,-0.216,-0.2241,-0.2242,-0.2243,-0.2258,-0.2258,-0.2258,-0.2249,-0.2249,-0.2249,-0.2249,-0.22,-0.2198,-0.2196,-0.2189,0,0,-0.219,-0.219,0,0,0,0,0,0,0,0,-0.2182,-0.2186,-0.2241,-0.2242,-0.2243,-0.2254,-0.2211,-0.2233,-0.2249,-0.2243,-0.2249,-0.2249,-0.2213,-0.2211,-0.221,-0.2186,-0.2184,-0.219,-0.2189,-0.2188,-0.2188,0,0,0,0,0,0,0,-0.2181,-0.2185,-0.2244,-0.2242,-0.2243,-0.2228,-0.2231,-0.2215,-0.2225,-0.2244,-0.2244,-0.2252,-0.2213,-0.2212,-0.2209,-0.2183,-0.219,-0.2189,-0.2188,-0.2187,-0.2172,-0.2173,0,0,0,0,0,0,-0.2188,-0.2184,-0.2244,-0.2245,-0.2215,-0.223,-0.2233,-0.2248,-0.2227,-0.2225,-0.2252,-0.2251,-0.2215,-0.2211,-0.2207,-0.2238,-0.2188,-0.2187,-0.2186,-0.2172,-0.2173,-0.2173,0,0,0,0,0,0,-0.2186,-0.2194,-0.2243,-0.2217,-0.2223,-0.2232,-0.2248,-0.2249,-0.2253,-0.2234,-0.223,-0.2256,-0.2215,-0.221,-0.2203,-0.2234,-0.2186,-0.2184,-0.2171,-0.2172,-0.2173,-0.2274,0,0,0,0,0,0,-0.2184,-0.2193,-0.22,-0.2218,-0.2225,-0.2263,-0.2249,-0.2249,-0.2259,-0.2258,-0.2237,-0.2232,-0.2214,-0.2206,-0.2201,-0.2231,-0.2183,-0.217,-0.2171,-0.2173,-0.2269,-0.2278,-0.2285,0,0,0,0,0,-0.2181,-0.2195,-0.2201,-0.2208,-0.2237,-0.2265,-0.2266,-0.2269,-0.226,-0.2269,-0.2254,-0.2233,-0.2211,-0.2205,-0.2199,-0.2229,-0.2169,-0.2171,-0.2173,-0.2266,-0.2276,-0.2285,0,0,0,0,0,0,-0.2158,-0.2196,-0.2203,-0.2226,-0.225,-0.2265,-0.227,-0.2274,-0.2269,-0.2263,-0.224,-0.2235,-0.2242,-0.2215,-0.2209,-0.2227,-0.2187,-0.2188,-0.226,-0.227,-0.2277,-0.2293,-0.2181,0,0,0,0,0,-0.216,-0.2179,-0.2214,-0.223,-0.2244,-0.2257,-0.2265,-0.2273,-0.2276,-0.2274,-0.2262,-0.2246,-0.2243,-0.224,-0.2227,-0.2234,-0.2221,-0.2248,-0.2256,-0.2263,-0.227,-0.2288,-0.2299,-0.2179,-0.2179,-0.2179,0,0,-0.2151,-0.2176,-0.2185,-0.2226,-0.2239,-0.2278,-0.2261,-0.2281,-0.2314,-0.2267,-0.2292,-0.2271,-0.225,-0.2265,-0.2265,-0.2248,-0.229,-0.2265,-0.2272,-0.2275,-0.2291,-0.2303,-0.2314,-0.218,-0.2179,-0.2179,0,0,-0.2156,-0.2173,-0.2197,-0.2229,-0.2264,-0.2282,-0.2293,-0.2317,-0.2328,-0.2347,-0.2329,-0.2331,-0.2314,-0.2322,-0.2319,-0.2359,-0.233,-0.2347,-0.2406,-0.2423,-0.2434,-0.2443,-0.2445,-0.2454,-0.2354,-0.2354,-0.2355,0,-0.2145,-0.2191,-0.2206,-0.225,-0.2282,-0.2291,-0.2336,-0.2354,-0.2373,-0.239,-0.2364,-0.2372,-0.2349,-0.2392,-0.2402,-0.2382,-0.2375,-0.2376,-0.2437,-0.2445,-0.2453,-0.2453,-0.2461,-0.2359,-0.2359,-0.2358,-0.2358,0,-0.2179,-0.2223,-0.224,-0.2305,-0.2339,-0.2375,-0.2418,-0.2443,-0.2448,-0.2466,-0.2497,-0.2474,-0.2477,-0.2477,-0.2449,-0.2499,-0.247,-0.2447,-0.2419,-0.2472,-0.2467,-0.2474,-0.2367,-0.2365,-0.2363,-0.2362,0,0,-0.2137,-0.2246,-0.2251,-0.2302,-0.2375,-0.2407,-0.2469,-0.2529,-0.2568,-0.2579,-0.2626,-0.2627,-0.2605,-0.2599,-0.2575,-0.2591,-0.2634,-0.2541,-0.254,-0.2556,-0.2663,-0.2609,-0.261,-0.2621,-0.2623,-0.2624,-0.264,0,-0.2161,-0.2255,-0.2303,-0.2393,-0.245,-0.2496,-0.2557,-0.2609,-0.2634,-0.2676,-0.268,-0.2699,-0.2657,-0.2652,-0.2668,-0.2634,-0.2655,-0.2631,-0.2598,-0.2597,-0.2554,-0.2618,-0.2387,-0.2378,-0.2646,-0.2647,-0.2648,0,-0.2177,-0.2247,-0.2341,-0.246,-0.2487,-0.2537,-0.263,-0.2684,-0.2749,-0.2767,-0.2797,-0.2785,-0.2811,-0.2759,-0.2764,-0.2747,-0.2715,-0.2693,-0.2693,-0.2612,-0.2556,-0.2366,-0.238,-0.2658,-0.2657,-0.2657,-0.2656,0,-0.2144,-0.2269,-0.2345,-0.2388,-0.252,-0.2564,-0.2621,-0.2701,-0.2745,-0.2814,-0.2836,-0.2872,-0.2867,-0.2859,-0.2798,-0.2783,-0.2793,-0.2766,-0.27,-0.2695,-0.2476,-0.2449,-0.2787,-0.2787,-0.2787,-0.2787,-0.2787,0,-0.2156,-0.2214,-0.2335,-0.2382,-0.2462,-0.2555,-0.2627,-0.2692,-0.2773,-0.2825,-0.2864,-0.2895,-0.2888,-0.2882,-0.2838,-0.2785,-0.2825,-0.2726,-0.2706,-0.2503,-0.248,-0.2698,-0.2688,-0.2787,-0.2787,-0.2787,-0.2787,0,-0.2109,-0.2192,-0.2282,-0.2416,-0.245,-0.25,-0.2611,-0.2664,-0.2749,-0.2815,-0.2836,-0.2906,-0.2907,-0.2892,-0.287,-0.2819,-0.2785,-0.2756,-0.2514,-0.2466,-0.2668,-0.2662,-0.2702,-0.2701,-0.2699,-0.2698,-0.2697,0,-0.2095,-0.2139,-0.2269,-0.2306,-0.2363,-0.2446,-0.2501,-0.2623,-0.268,-0.2812,-0.2839,-0.2882,-0.288,-0.2844,-0.2754,-0.2688,-0.2757,-0.2463,-0.2407,-0.2689,-0.2664,-0.2661,-0.2657,-0.2149,-0.2143,-0.2139,-0.2135,0,-0.2054,-0.2092,-0.2158,-0.2236,-0.2299,-0.2372,-0.2462,-0.2506,-0.2651,-0.2704,-0.278,-0.2793,-0.2771,-0.2599,-0.2524,-0.2454,-0.2459,-0.2376,-0.2727,-0.2218,-0.2171,-0.2146,-0.216,-0.2096,-0.21,-0.2103,-0.2105,-0.2107,-0.1985,-0.2009,-0.2079,-0.2143,-0.2212,-0.2268,-0.2275,-0.2365,-0.2421,-0.2443,-0.2596,-0.2514,-0.2508,-0.2259,-0.2173,-0.2088,-0.225,-0.2141,-0.2152,-0.2168,-0.2114,-0.2069,-0.1963,-0.1966,-0.1969,-0.1971,-0.1973,0,-0.1876,-0.1922,-0.198,-0.204,-0.2047,-0.214,-0.2219,-0.2155,-0.2139,-0.2187,-0.2188,-0.1969,-0.1887,-0.1886,-0.1694,-0.169,-0.1642,-0.1632,-0.1556,-0.1595,-0.163,-0.1546,-0.1246,-0.1244,-0.1242,-0.1241,0,0,-0.1816,-0.1816,-0.1856,-0.1835,-0.1881,-0.1816,-0.1824,-0.1743,-0.1709,-0.1587,-0.1539,-0.1688,-0.1778,-0.1479,-0.1444,-0.1309,-0.1425,-0.1243,-0.1819,-0.1761,-0.1793,-0.1913,-0.1829,0,0,0,0,0]},{"header":{"parameterUnit":"m.s-1","parameterCategory":2,"la1":30.2991,"la2":30.254,"lo1":-89.0895,"lo2":-89.0444,"dy":0.0017,"dx":0.0017,"nx":28,"ny":28,"refTime":"2025-04-02T03:00:00:Z","depth":"2","parameterNumber":3,"parameterNumberName":"V-component_of_CURRENTS"},"data":[0,0,0,0,0,0,0,0,0,0,0,0,0,0,0,0,0,0,0,0,0,0,0,0,0,0,0,0,0,0,0,0,0,0,0,0,0,0,0,0,0,0,0,0,0,0,0,0,0,0,0,0,0,0,0,0,0,0,-0.0011,-0.001,0,0.0073,0.0074,0.0075,0.0126,0.0127,0.0127,0.0127,0.0243,0.0246,0.0249,0,0,0,0,0,0,0,0,0,0,0,0,0,-0.0077,-0.0076,-0.0011,-0.001,-0.0009,0.0073,0.0074,0.0075,0.0126,0.0127,0.0127,0.0127,0.0243,0.0246,0.0249,0,0,0,0,0,0,0,0,0,0,0,0,0,-0.0026,-0.0076,-0.0011,0.0027,0.0031,0.0072,0.0074,0.0075,0.0126,0.0127,0.0127,0.0128,0.0241,0.0246,0.025,0.0268,0,0,0.0263,0.0265,0,0,0,0,0,0,0,0,-0.0029,-0.0024,0.002,0.0024,0.0029,0.009,0.0093,0.0141,0.0126,0.009,0.0127,0.0128,0.0195,0.0203,0.0217,0.0273,0.0278,0.0263,0.0266,0.0268,0.0269,0,0,0,0,0,0,0,-0.0033,-0.0027,0.0023,0.0021,0.0027,0.0056,0.0063,0.0103,0.014,0.0093,0.0097,0.0106,0.0197,0.0213,0.022,0.028,0.0263,0.0267,0.0269,0.0271,0.0378,0.0378,0,0,0,0,0,0,-0.0046,-0.0031,0.002,0.0025,0.0,0.0057,0.0065,0.007,0.0139,0.015,0.0106,0.0108,0.0206,0.0215,0.0225,0.0261,0.0268,0.0272,0.0274,0.0377,0.0378,0.0378,0,0,0,0,0,0,-0.0048,-0.0043,0.0016,-0.0001,0.0009,0.0057,0.0063,0.0071,0.0088,0.0148,0.0159,0.0114,0.0206,0.0219,0.026,0.0266,0.0273,0.0277,0.0377,0.0377,0.0378,0.0328,0,0,0,0,0,0,-0.0051,-0.0044,-0.0048,-0.0002,0.0009,0.0034,0.0062,0.0073,0.0093,0.0097,0.0159,0.017,0.0208,0.0254,0.0265,0.0272,0.0281,0.0377,0.0377,0.0378,0.0329,0.0327,0.0324,0,0,0,0,0,-0.0053,-0.0063,-0.0049,-0.0042,0.0004,0.0033,0.0041,0.0078,0.0093,0.0095,0.0141,0.0168,0.0265,0.0257,0.027,0.0279,0.0376,0.0377,0.0378,0.033,0.0327,0.0324,0,0,0,0,0,0,-0.0097,-0.0057,-0.0041,-0.0038,-0.0007,0.0042,0.0047,0.0073,0.011,0.0115,0.0171,0.0186,0.0225,0.0257,0.0248,0.0311,0.0325,0.0328,0.0285,0.0282,0.028,0.0261,0.0284,0,0,0,0,0,-0.0108,-0.0103,-0.0059,-0.0059,-0.0046,-0.0001,0.0015,0.004,0.008,0.0097,0.0142,0.0191,0.0237,0.0263,0.0304,0.0338,0.038,0.0352,0.035,0.0347,0.0341,0.0416,0.0419,0.038,0.038,0.038,0,0,-0.0127,-0.0103,-0.0102,-0.0068,-0.0042,-0.0032,0.001,0.0028,0.0042,0.0104,0.0133,0.0182,0.0243,0.0282,0.0303,0.0311,0.038,0.0348,0.0346,0.0341,0.0417,0.0421,0.0424,0.038,0.038,0.038,0,0,-0.0163,-0.014,-0.0148,-0.0126,-0.009,-0.006,-0.0057,-0.0009,0.0018,0.0052,0.0104,0.0157,0.0216,0.027,0.0304,0.0313,0.0363,0.0323,0.03,0.0372,0.0376,0.0379,0.0433,0.0442,0.0324,0.0324,0.0324,0,-0.0189,-0.0191,-0.0147,-0.0147,-0.0137,-0.0077,-0.0086,-0.0047,0.0009,0.0034,0.0051,0.0161,0.0214,0.0279,0.0282,0.0309,0.0347,0.0304,0.0368,0.0373,0.0378,0.0432,0.0443,0.0322,0.0322,0.0322,0.0323,0,-0.0226,-0.023,-0.0233,-0.0214,-0.0195,-0.0194,-0.0137,-0.0109,-0.007,-0.0026,0.0042,0.0123,0.0189,0.0218,0.0253,0.0315,0.033,0.0354,0.0372,0.0379,0.0435,0.0447,0.0318,0.0319,0.032,0.0321,0,0,-0.0284,-0.0266,-0.0268,-0.0279,-0.0233,-0.0227,-0.0195,-0.015,-0.0129,-0.0056,-0.0019,0.0078,0.0129,0.017,0.0235,0.0299,0.037,0.0331,0.0336,0.0378,0.0516,0.056,0.0577,0.0404,0.0406,0.0407,0.054,0,-0.0332,-0.0364,-0.0329,-0.0357,-0.0372,-0.0306,-0.0285,-0.0231,-0.0168,-0.0114,-0.0006,0.0051,0.011,0.0144,0.0221,0.0333,0.04,0.0331,0.0509,0.0514,0.0548,0.0592,0.049,0.0603,0.0552,0.0554,0.0555,0,-0.0381,-0.0399,-0.0438,-0.0439,-0.0437,-0.0433,-0.0388,-0.0359,-0.0254,-0.0203,-0.011,-0.0027,0.0089,0.0132,0.0332,0.0283,0.0389,0.0477,0.0485,0.055,0.0581,0.0591,0.0627,0.0576,0.0574,0.0573,0.0572,0,-0.0458,-0.0476,-0.0515,-0.0515,-0.0498,-0.0493,-0.0473,-0.0389,-0.0363,-0.0254,-0.0217,-0.0069,0.0009,0.0164,0.0354,0.0343,0.0571,0.0583,0.0724,0.0727,0.0689,0.0686,0.0721,0.0721,0.072,0.072,0.072,0,-0.0529,-0.0561,-0.0557,-0.0582,-0.0624,-0.0573,-0.0581,-0.0529,-0.045,-0.0418,-0.0271,-0.02,0.002,0.0182,0.0344,0.0579,0.0573,0.0731,0.0774,0.0669,0.0663,0.0675,0.0668,0.0725,0.0724,0.0723,0.0722,0,-0.0609,-0.0604,-0.0656,-0.066,-0.0664,-0.0693,-0.0672,-0.0669,-0.0575,-0.0522,-0.0492,-0.0292,-0.0069,0.016,0.0425,0.0569,0.0782,0.0862,0.0717,0.0743,0.0887,0.0876,0.1032,0.1035,0.1037,0.1039,0.1041,0,-0.0653,-0.0689,-0.0729,-0.0769,-0.0774,-0.0801,-0.0818,-0.0747,-0.0731,-0.057,-0.0551,-0.0322,-0.0138,0.0275,0.054,0.084,0.0859,0.0929,0.0902,0.0897,0.0924,0.0908,0.0894,0.0824,0.0824,0.0824,0.0824,0,-0.0743,-0.075,-0.0791,-0.0878,-0.0918,-0.0958,-0.0965,-0.097,-0.0865,-0.0779,-0.0615,-0.0447,-0.0049,0.0259,0.0644,0.0806,0.0874,0.0938,0.0986,0.0766,0.0714,0.0736,0.0726,0.0822,0.0822,0.0822,0.0823,0.0823,-0.0801,-0.0855,-0.0909,-0.099,-0.1046,-0.1097,-0.1119,-0.1088,-0.104,-0.089,-0.0707,-0.044,-0.0117,0.0405,0.0677,0.0913,0.0936,0.0981,0.0976,0.0972,0.0929,0.0885,0.1016,0.1017,0.1018,0.1019,0.102,0,-0.0876,-0.0932,-0.1019,-0.1106,-0.1186,-0.1181,-0.1206,-0.1192,-0.1127,-0.0944,-0.0749,-0.0413,-0.0033,0.0313,0.0674,0.0929,0.0885,0.0966,0.0843,0.0843,0.0843,0.0789,0.0842,0.0842,0.0843,0.0843,0,0,-0.0918,-0.1013,-0.1061,-0.1209,-0.1266,-0.1333,-0.1343,-0.1284,-0.1164,-0.0989,-0.0791,-0.0488,-0.005,0.0171,0.0474,0.0665,0.069,0.0677,0.0787,0.0603,0.0601,0.0815,0.0728,0,0,0,0,0]}],[{"header":{"parameterUnit":"m.s-1","parameterCategory":2,"la1":30.2991,"la2":30.254,"lo1":-89.0895,"lo2":-89.0444,"dy":0.0017,"dx":0.0017,"nx":28,"ny":28,"refTime":"2025-04-02T03:00:00:Z","depth":"4","parameterNumber":2,"parameterNumberName":"U-component_of_CURRENTS"},"data":[0,0,0,0,0,0,0,0,0,0,0,0,0,0,0,0,0,0,0,0,0,0,0,0,0,0,0,0,0,0,0,0,0,0,0,0,0,0,0,0,0,0,0,0,0,0,0,0,0,0,0,0,0,0,0,0,0,0,-0.1467,-0.1468,0,-0.1516,-0.1516,-0.1517,-0.1556,-0.1557,-0.1557,-0.1558,-0.1587,-0.1587,-0.1587,0,0,0,0,0,0,0,0,0,0,0,0,0,-0.1372,-0.1374,-0.1467,-0.1468,-0.1469,-0.1516,-0.1517,-0.1517,-0.1556,-0.1557,-0.1557,-0.1558,-0.1587,-0.1587,-0.1587,0,0,0,0,0,0,0,0,0,0,0,0,0,-0.1414,-0.1374,-0.1467,-0.1496,-0.1499,-0.1516,-0.1517,-0.1517,-0.1556,-0.1557,-0.1558,-0.1558,-0.1587,-0.1587,-0.1587,-0.1572,0,0,-0.1588,-0.1589,0,0,0,0,0,0,0,0,-0.1412,-0.1418,-0.1491,-0.1494,-0.1497,-0.1533,-0.1494,-0.1535,-0.1556,-0.1532,-0.1558,-0.1559,-0.1568,-0.157,-0.1574,-0.1573,-0.1575,-0.1588,-0.1589,-0.1589,-0.1589,0,0,0,0,0,0,0,-0.1409,-0.1416,-0.1485,-0.1491,-0.1495,-0.1494,-0.1501,-0.1501,-0.1542,-0.1534,-0.1538,-0.1546,-0.1569,-0.1574,-0.1575,-0.1575,-0.1588,-0.1589,-0.1589,-0.1589,-0.1645,-0.1647,0,0,0,0,0,0,-0.1408,-0.1413,-0.1483,-0.1486,-0.1458,-0.1495,-0.1503,-0.1519,-0.1543,-0.1548,-0.1545,-0.1548,-0.1573,-0.1575,-0.1576,-0.165,-0.1589,-0.1589,-0.1589,-0.1644,-0.1646,-0.1647,0,0,0,0,0,0,-0.1406,-0.1414,-0.1481,-0.1452,-0.146,-0.1496,-0.1513,-0.1519,-0.1554,-0.1552,-0.1557,-0.1577,-0.1573,-0.1576,-0.1607,-0.1648,-0.1589,-0.159,-0.1643,-0.1645,-0.1646,-0.1739,0,0,0,0,0,0,-0.1403,-0.1413,-0.1436,-0.1452,-0.1462,-0.1514,-0.1513,-0.152,-0.1556,-0.1561,-0.158,-0.1582,-0.1574,-0.1607,-0.1608,-0.1647,-0.159,-0.1641,-0.1643,-0.1646,-0.1734,-0.1743,-0.1752,0,0,0,0,0,-0.14,-0.1424,-0.1437,-0.1446,-0.1489,-0.1515,-0.1521,-0.1546,-0.1557,-0.1579,-0.1595,-0.1583,-0.1623,-0.1608,-0.1609,-0.1649,-0.164,-0.1643,-0.1646,-0.173,-0.1742,-0.1751,0,0,0,0,0,0,-0.1394,-0.1431,-0.1445,-0.1481,-0.1507,-0.1523,-0.1548,-0.1562,-0.1591,-0.1601,-0.1598,-0.1602,-0.1644,-0.1629,-0.1614,-0.1671,-0.163,-0.1633,-0.1694,-0.1704,-0.1713,-0.1721,-0.159,0,0,0,0,0,-0.1403,-0.1435,-0.1463,-0.1494,-0.151,-0.1533,-0.1552,-0.157,-0.1591,-0.1606,-0.1621,-0.1634,-0.165,-0.1665,-0.1671,-0.1701,-0.1689,-0.1727,-0.1736,-0.1744,-0.175,-0.177,-0.1781,-0.1657,-0.1657,-0.1657,0,0,-0.141,-0.1435,-0.1454,-0.1496,-0.1518,-0.1551,-0.1548,-0.1584,-0.1623,-0.1602,-0.1662,-0.1665,-0.1664,-0.1703,-0.1721,-0.1702,-0.1773,-0.1747,-0.1754,-0.1756,-0.1774,-0.1786,-0.1797,-0.1659,-0.1658,-0.1658,0,0,-0.1429,-0.1463,-0.1493,-0.1521,-0.1562,-0.1578,-0.1596,-0.163,-0.1661,-0.1705,-0.1707,-0.1738,-0.1758,-0.1775,-0.1782,-0.184,-0.1817,-0.1842,-0.19,-0.192,-0.1931,-0.194,-0.1943,-0.1952,-0.185,-0.185,-0.185,0,-0.1436,-0.148,-0.1506,-0.1541,-0.1571,-0.1596,-0.1634,-0.1668,-0.1711,-0.1743,-0.1738,-0.1795,-0.1794,-0.1851,-0.1873,-0.1863,-0.1861,-0.1863,-0.1933,-0.1942,-0.1949,-0.195,-0.1959,-0.1855,-0.1854,-0.1854,-0.1853,0,-0.147,-0.1516,-0.1537,-0.1594,-0.163,-0.1666,-0.1712,-0.1758,-0.1792,-0.1821,-0.189,-0.1896,-0.1929,-0.1939,-0.1924,-0.1987,-0.1963,-0.1941,-0.1908,-0.1968,-0.1965,-0.1972,-0.1862,-0.186,-0.1859,-0.1857,0,0,-0.1453,-0.1544,-0.1554,-0.1593,-0.1663,-0.1691,-0.1766,-0.1834,-0.1889,-0.1936,-0.2003,-0.204,-0.2046,-0.2053,-0.2049,-0.207,-0.2122,-0.2034,-0.2033,-0.2042,-0.216,-0.2013,-0.2006,-0.2115,-0.2117,-0.2118,-0.2136,0,-0.1473,-0.1545,-0.1591,-0.1668,-0.1706,-0.1765,-0.1833,-0.1901,-0.1954,-0.2024,-0.2059,-0.2112,-0.209,-0.2111,-0.2135,-0.2119,-0.2145,-0.2118,-0.2096,-0.2095,-0.1962,-0.2011,-0.2124,-0.2141,-0.2143,-0.2144,-0.2145,0,-0.1483,-0.1534,-0.1611,-0.1712,-0.1737,-0.1792,-0.19,-0.1964,-0.2064,-0.2108,-0.2172,-0.2191,-0.2244,-0.2208,-0.2237,-0.2221,-0.2203,-0.2189,-0.2189,-0.2023,-0.1961,-0.2067,-0.2157,-0.2156,-0.2155,-0.2154,-0.2154,0,-0.1443,-0.1546,-0.161,-0.1644,-0.1759,-0.1817,-0.1885,-0.1991,-0.2049,-0.2163,-0.2204,-0.2273,-0.2298,-0.2305,-0.2271,-0.2263,-0.2281,-0.2262,-0.212,-0.211,-0.2196,-0.2186,-0.229,-0.229,-0.229,-0.229,-0.2289,0,-0.143,-0.1484,-0.1601,-0.1634,-0.1715,-0.1809,-0.1904,-0.1982,-0.2092,-0.2153,-0.224,-0.2276,-0.2322,-0.233,-0.2303,-0.222,-0.2307,-0.2135,-0.2107,-0.2233,-0.2227,-0.2201,-0.219,-0.229,-0.229,-0.229,-0.229,0,-0.137,-0.1451,-0.1524,-0.1652,-0.1696,-0.1753,-0.1893,-0.1952,-0.2073,-0.2153,-0.2189,-0.2285,-0.2292,-0.231,-0.231,-0.2233,-0.2187,-0.2139,-0.2272,-0.225,-0.2,-0.1994,-0.1991,-0.1986,-0.1982,-0.1978,-0.1975,0,-0.1344,-0.1378,-0.1508,-0.1546,-0.1607,-0.1709,-0.1772,-0.1919,-0.1973,-0.2131,-0.2145,-0.2213,-0.2253,-0.213,-0.2173,-0.2122,-0.2092,-0.2061,-0.2035,-0.1997,-0.1971,-0.1972,-0.1972,-0.1969,-0.1967,-0.1966,-0.1965,0,-0.1281,-0.1336,-0.1389,-0.1459,-0.153,-0.1607,-0.1709,-0.1734,-0.1895,-0.2026,-0.2039,-0.2042,-0.2047,-0.2032,-0.2,-0.1966,-0.2077,-0.2017,-0.2025,-0.2001,-0.197,-0.1949,-0.1954,-0.1951,-0.1953,-0.1954,-0.1955,0,-0.1221,-0.1233,-0.1297,-0.1345,-0.1427,-0.1462,-0.1545,-0.1605,-0.1675,-0.1854,-0.1852,-0.1929,-0.2024,-0.1951,-0.1926,-0.1875,-0.1849,-0.1785,-0.1805,-0.1822,-0.1755,-0.1691,-0.1565,0,0,0,0,0,-0.1148,-0.1141,-0.1176,-0.1215,-0.129,-0.1333,-0.1474,-0.1563,-0.1721,-0.1678,-0.1761,-0.1761,-0.174,-0.1781,-0.1689,-0.1848,-0.1852,-0.1735,-0.1788,-0.187,-0.1887,-0.1823,0,0,0,0,0,0,-0.1091,-0.112,-0.1124,-0.1086,-0.1087,-0.1155,-0.1237,-0.1356,-0.1348,-0.1514,-0.1503,-0.1634,-0.1627,-0.1741,-0.1639,-0.1652,-0.1646,-0.1794,-0.179,-0.186,-0.1875,-0.1889,-0.1829,0,0,0,0,0]},{"header":{"parameterUnit":"m.s-1","parameterCategory":2,"la1":30.2991,"la2":30.254,"lo1":-89.0895,"lo2":-89.0444,"dy":0.0017,"dx":0.0017,"nx":28,"ny":28,"refTime":"2025-04-02T03:00:00:Z","depth":"4","parameterNumber":3,"parameterNumberName":"V-component_of_CURRENTS"},"data":[0,0,0,0,0,0,0,0,0,0,0,0,0,0,0,0,0,0,0,0,0,0,0,0,0,0,0,0,0,0,0,0,0,0,0,0,0,0,0,0,0,0,0,0,0,0,0,0,0,0,0,0,0,0,0,0,0,0,-0.0108,-0.0107,0,-0.0047,-0.0046,-0.0045,-0.0017,-0.0017,-0.0017,-0.0017,0.007,0.0073,0.0075,0,0,0,0,0,0,0,0,0,0,0,0,0,-0.0167,-0.0166,-0.0108,-0.0107,-0.0106,-0.0047,-0.0046,-0.0045,-0.0017,-0.0017,-0.0017,-0.0017,0.0069,0.0072,0.0075,0,0,0,0,0,0,0,0,0,0,0,0,0,-0.0127,-0.0166,-0.0108,-0.0086,-0.0083,-0.0047,-0.0046,-0.0045,-0.0017,-0.0017,-0.0017,-0.0017,0.0069,0.0072,0.0076,0.0101,0,0,0.0087,0.0088,0,0,0,0,0,0,0,0,-0.0129,-0.0125,-0.009,-0.0087,-0.0084,-0.004,-0.0035,0.0005,-0.0017,-0.0042,-0.0017,-0.0018,0.0036,0.0042,0.0054,0.0105,0.0109,0.0087,0.0089,0.0091,0.0092,0,0,0,0,0,0,0,-0.0132,-0.0127,-0.0083,-0.0089,-0.0085,-0.0067,-0.0062,-0.0027,-0.0002,-0.004,-0.0038,-0.0031,0.0037,0.005,0.0056,0.011,0.0087,0.009,0.0092,0.0094,0.0205,0.0206,0,0,0,0,0,0,-0.0142,-0.013,-0.0085,-0.0081,-0.0108,-0.0066,-0.006,-0.0054,-0.0003,0.0004,-0.0031,-0.003,0.0044,0.0052,0.006,0.0091,0.0091,0.0094,0.0096,0.0205,0.0206,0.0206,0,0,0,0,0,0,-0.0143,-0.0139,-0.0088,-0.0105,-0.0097,-0.0065,-0.0058,-0.0052,-0.004,0.0003,0.0011,-0.0025,0.0044,0.0054,0.0092,0.0094,0.0096,0.0099,0.0204,0.0205,0.0206,0.0155,0,0,0,0,0,0,-0.0145,-0.0139,-0.014,-0.0105,-0.0096,-0.0071,-0.0058,-0.0051,-0.0036,-0.0034,0.0011,0.0019,0.0045,0.0087,0.0096,0.01,0.0102,0.0203,0.0204,0.0206,0.0155,0.0154,0.0153,0,0,0,0,0,-0.0148,-0.0149,-0.0141,-0.0135,-0.0098,-0.0071,-0.0065,-0.0043,-0.0036,-0.0032,0.0002,0.0018,0.0103,0.009,0.0101,0.0105,0.0202,0.0204,0.0206,0.0156,0.0154,0.0153,0,0,0,0,0,0,-0.0178,-0.0145,-0.0136,-0.0128,-0.0104,-0.0067,-0.0062,-0.0044,-0.0014,-0.0013,0.0027,0.0038,0.0072,0.0101,0.0086,0.0145,0.0156,0.016,0.0115,0.0113,0.0112,0.0091,0.0105,0,0,0,0,0,-0.0184,-0.0177,-0.0143,-0.0138,-0.0128,-0.0095,-0.0082,-0.0066,-0.0035,-0.0022,0.0011,0.0051,0.0089,0.0109,0.0145,0.0177,0.0207,0.019,0.0188,0.0187,0.0179,0.0233,0.0235,0.0212,0.0212,0.0212,0,0,-0.0197,-0.0177,-0.0175,-0.0144,-0.0125,-0.0119,-0.0088,-0.0072,-0.0067,-0.0016,0.0003,0.0046,0.0097,0.013,0.0148,0.0153,0.0211,0.0189,0.0187,0.018,0.0235,0.0237,0.0239,0.0214,0.0213,0.0213,0,0,-0.022,-0.02,-0.0202,-0.0185,-0.0158,-0.0137,-0.0134,-0.0096,-0.0079,-0.0051,-0.0012,0.0033,0.0086,0.0124,0.015,0.0167,0.02,0.0181,0.0157,0.0209,0.0211,0.0213,0.0252,0.0258,0.0181,0.0181,0.0181,0,-0.024,-0.0239,-0.02,-0.0199,-0.0196,-0.0149,-0.0159,-0.013,-0.0086,-0.0071,-0.0053,0.0039,0.0082,0.0128,0.0135,0.0162,0.0192,0.0153,0.0205,0.0208,0.0211,0.0251,0.0258,0.0179,0.0179,0.0179,0.0179,0,-0.0262,-0.0267,-0.0267,-0.0255,-0.0242,-0.0242,-0.0202,-0.0182,-0.0153,-0.0122,-0.0069,0.0001,0.0054,0.0082,0.0113,0.0158,0.0173,0.0194,0.0201,0.021,0.0252,0.026,0.0175,0.0176,0.0177,0.0177,0,0,-0.0303,-0.0289,-0.0293,-0.0306,-0.0276,-0.0272,-0.0256,-0.0229,-0.022,-0.0158,-0.0137,-0.0053,-0.0008,0.0026,0.0083,0.0134,0.0185,0.0167,0.0171,0.0191,0.0291,0.0263,0.0269,0.0213,0.0214,0.0215,0.0311,0,-0.0341,-0.0365,-0.0341,-0.0373,-0.0388,-0.0345,-0.0338,-0.0303,-0.0258,-0.022,-0.0133,-0.0088,-0.0031,-0.0,0.006,0.0157,0.0205,0.0156,0.0293,0.0297,0.0259,0.0277,0.0219,0.0317,0.0319,0.0321,0.0322,0,-0.0375,-0.0391,-0.043,-0.0445,-0.0446,-0.0453,-0.0435,-0.0419,-0.0347,-0.0308,-0.0236,-0.0165,-0.0072,-0.0028,0.0133,0.0099,0.0185,0.0259,0.0265,0.0259,0.0284,0.0312,0.0337,0.0336,0.0335,0.0334,0.0333,0,-0.0432,-0.0456,-0.0495,-0.05,-0.05,-0.0508,-0.0503,-0.045,-0.0437,-0.0357,-0.033,-0.0212,-0.0147,-0.0021,0.0139,0.0137,0.0311,0.0329,0.0383,0.0382,0.04,0.0398,0.0431,0.0431,0.043,0.043,0.043,0,-0.0482,-0.0517,-0.0529,-0.0552,-0.0602,-0.0573,-0.0597,-0.0564,-0.0513,-0.0496,-0.038,-0.0329,-0.0141,-0.0015,0.0121,0.0277,0.0302,0.0377,0.0406,0.0378,0.0371,0.0406,0.0402,0.0434,0.0433,0.0432,0.0432,0,-0.0533,-0.054,-0.0593,-0.0617,-0.0631,-0.0664,-0.0673,-0.0678,-0.0617,-0.0586,-0.0562,-0.041,-0.0242,-0.0057,0.0157,0.0248,0.0402,0.0449,0.0397,0.0422,0.0441,0.0434,0.0512,0.0512,0.0511,0.0511,0.0511,0,-0.056,-0.0592,-0.065,-0.0691,-0.0708,-0.0749,-0.0774,-0.0738,-0.0731,-0.063,-0.0614,-0.0453,-0.0335,-0.0051,0.0137,0.0382,0.0414,0.048,0.0466,0.043,0.0451,0.0443,0.0436,0.0511,0.0511,0.0511,0.0511,0,-0.0618,-0.0637,-0.0677,-0.0761,-0.081,-0.0861,-0.0884,-0.0886,-0.0824,-0.0776,-0.0645,-0.048,-0.0295,-0.0065,0.0125,0.0302,0.043,0.0479,0.0481,0.0468,0.043,0.0449,0.0442,0.051,0.051,0.051,0.051,0,-0.0657,-0.0698,-0.0752,-0.0821,-0.0894,-0.0941,-0.0949,-0.0919,-0.0897,-0.0767,-0.0728,-0.0501,-0.0363,-0.0107,0.0071,0.0238,0.0276,0.0315,0.0326,0.0329,0.0245,0.0168,0.019,0,0,0,0,0,-0.0692,-0.0738,-0.0809,-0.0879,-0.0949,-0.0986,-0.1008,-0.0993,-0.0934,-0.0853,-0.0782,-0.0601,-0.0313,-0.0179,-0.0017,0.0049,0.0286,0.024,0.0331,0.0507,0.0508,0.0437,0,0,0,0,0,0,-0.0718,-0.0786,-0.0814,-0.091,-0.0965,-0.1033,-0.105,-0.1009,-0.0947,-0.0861,-0.0702,-0.0589,-0.0307,-0.0406,-0.0021,0.0032,0.0104,0.0388,0.039,0.0507,0.0507,0.0508,0.0436,0,0,0,0,0]}]]